Regional Weather Roundup
Issued by NWS

Home | Current Version | Previous Version | Graphics & Text | Print | Product List | Glossary On
Versions: 1 2 3 4 5 6 7 8 9 10 11 12 13 14 15 16 17 18 19 20 21 22 23 24 25 26 27 28 29 30 31 32 33 34 35 36 37 38 39 40 41 42 43 44 45 46 47 48 49 50
000
ASUS43 KMKX 211000
RWRWI

WISCONSIN REGIONAL WEATHER ROUNDUP
NATIONAL WEATHER SERVICE MILWAUKEE/SULLIVAN WI
500 AM CDT SUN SEP 21 2014

NOTE: "FAIR" INDICATES FEW OR NO CLOUDS BELOW 12,000 FEET WITH NO
SIGNIFICANT WEATHER AND/OR OBSTRUCTIONS TO VISIBILITY.

WIZ001-002-006>008-014>016-023>028-211100-
NORTHWEST WISCONSIN

CITY           SKY/WX    TMP DP  RH WIND       PRES   REMARKS
SUPERIOR ARPT  DRIZZLE   52  51  97 NE6       29.89R
ASHLAND        LGT RAIN  51  49  92 NE14      29.86R
HAYWARD        LGT RAIN  53  51  93 NE17G23   29.84R
SIREN          DRIZZLE   51  50  95 NW9       29.86R
RICE LAKE      CLOUDY    52  49  90 NW12G17   29.84R
LADYSMITH      CLOUDY    54  52  94 NW10      29.78R
EAU CLAIRE     CLOUDY    53  49  86 NW15G22   29.81R
MENOMONIE      CLOUDY    55  48  77 W18G24    29.84R
NEW RICHMOND   CLOUDY    53  46  79 NW10G20   29.88R
OSCEOLA        RAIN      53  49  86 W12G20    29.92R
$$

WIZ003>005-009-010-017-018-211100-
NORTH CENTRAL WISCONSIN

CITY           SKY/WX    TMP DP  RH WIND       PRES   REMARKS
WOODRUFF       HVY RAIN  54  52  94 N7        29.74R
RHINELANDER    LGT RAIN  51  50  96 NW6       29.73R
EAGLE RIVER    RAIN      52  52 100 N9        29.72R
LAND O LAKES   RAIN      52  51  96 N8        29.75R
PHILLIPS       RAIN      52  52  99 N6        29.76R
TOMAHAWK       LGT RAIN  51  50  96 NW3       29.73R
MEDFORD        RAIN      51  50  97 NW8       29.74R
MERRILL        RAIN      52  52  99 N7        29.72R
$$

WIZ029-030-035-036-043>047-211100-
CENTRAL WISCONSIN

CITY           SKY/WX    TMP DP  RH WIND       PRES   REMARKS
WAUSAU         CLOUDY    54  51  90 NW9G16    29.71R
MOSINEE        RAIN      52  52 100 NW8       29.73R
MARSHFIELD     LGT RAIN  53  50  89 NW14G22   29.74R
STEVENS POINT  DRIZZLE   51  49  93 W12G20    29.71R
WAUPACA        RAIN      56  55  93 W10       29.69S
WAUTOMA        NOT AVBL
WISC RAPIDS    LGT RAIN  53  51  93 NW16G22   29.74R
CAMP DOUGLAS   NOT AVBL
$$

WIZ011>013-019>022-031-037>040-048>050-211100-
NORTHEAST WISCONSIN

CITY           SKY/WX    TMP DP  RH WIND       PRES   REMARKS
ANTIGO         CLOUDY    52  51  97 NW7       29.70R
STURGEON BAY   CLOUDY    55  52  88 N13       29.64S
GREEN BAY      LGT RAIN  56  55  97 W9        29.65S
MANITOWOC      NOT AVBL
APPLETON       DRIZZLE   54  52  94 W12       29.67S
CLINTONVILLE   DRIZZLE   54  54 100 NW8       29.67R
OSHKOSH        LGT RAIN  55  53  93 W7        29.68S
$$

WIZ032>034-041-042-053>061-211100-
SOUTHWEST WISCONSIN

CITY           SKY/WX    TMP DP  RH WIND       PRES   REMARKS
LA CROSSE      CLOUDY    58  49  72 NW17G28   29.82R
SPARTA         NOT AVBL
VIROQUA        PTSUNNY   54  50  86 NW15G26   29.81R
BOSCOBEL       PTCLDY    59  50  72 W15G21    29.83R
PRAIRIE DU CHI CLEAR     56  52  86 W10       29.84S
PLATTEVILLE    FAIR      55  52  92 W14G20    29.84S
$$

WIZ056-057-062-063-064-067-068-211100-
SOUTH CENTRAL WISCONSIN

CITY           SKY/WX    TMP DP  RH WIND       PRES   REMARKS
BARABOO/DELLS  MOCLDY    54  49  83 W9        29.75S
LONE ROCK      NOT AVBL
WATERTOWN      MOCLDY    54  53  97 W8        29.74S
MADISON        PTCLDY    56  51  84 VRB7      29.76R
MIDDLETON      FAIR      56  53  88 W12G17    29.76S
MONROE         CLEAR     54  52  94 W18G24    29.80R
JANESVILLE     CLEAR     55  50  82 W10G17    29.78S
$$

WIZ051-052-058>065-066-070>072-211100-
SOUTHEAST WISCONSIN

CITY           SKY/WX    TMP DP  RH WIND       PRES   REMARKS
MILWAUKEE      PTCLDY    58  50  75 W12       29.72R
WAUKESHA       CLEAR     54  50  87 W17G24    29.73S
MILWAUKEE/TIMM CLEAR     55  50  82 W15       29.72R
RACINE         CLEAR     57  51  80 W12       29.74R
BURLINGTON     CLEAR     54  50  88 W8        29.75S
KENOSHA        CLEAR     55  51  86 W10       29.74R
FOND DU LAC    CLOUDY    56  50  80 W15G22    29.70S
SHEBOYGAN      CLOUDY    57  52  83 W16G23    29.67S
WEST BEND      PTCLDY    54  50  87 W15G21    29.70R
JUNEAU         CLOUDY    54  50  86 W13       29.74S
$$

LSZ147-162-211100-
LAKE SUPERIOR

STATION/POSITION TIME  TEMP    WIND        PRES    WAVE
                       AIR SEA DIR/SP/G            HT/PER
                 (UTC) (F)     (DEG/KT/KT) (MB)    (FT/S)
W MID LAKE BUOY  0850   49 46   40/ 12/ 14 1009.2R   2/ 4
DEVILS ISLAND    0900   52      50/ 19/ 20 1010.3R
PORT WING        0900   51      40/ 16/ 24 1011.2R
SAXON HARBOR     0900   53      50/ 23     1009.1R
$$

LMZ867-665-643>646-211100-
LAKE MICHIGAN

STATION/POSITION TIME  TEMP    WIND        PRES    WAVE
                       AIR SEA DIR/SP/G            HT/PER
                 (UTC) (F)     (DEG/KT/KT) (MB)    (FT/S)
N MID LAKE BUOY  0850   56 58  360/ 16/ 19 1002.6F   2/ 6
NORTHPORT PIER   0900   56     350/ 15/ 19 1003.7R
SISTER BAY       0812           10/  4/  7   N/A
KEWAUNEE LAKESHO 0900   56     330/  3/  5 1002.8R
SHEBOYGAN LAKESH 0900   59 54  280/ 15/ 19 1004.6R
PORT WASHINGTON  0900   59     290/ 11/ 17 1005.8
ATWATER BUOY     0900   58     270/ 14/ 17 1006.7R
MILWAUKEE LAKESH 0900   60     290/ 12/ 19   N/A
S MID LAKE BUOY  0850   63 63  280/ 23/ 27 1005.0R   2/ 3
KENOSHA   LAKESH 0900   60     290/ 11/ 18 1006.4R
$$

TC  - TEMPERATURE IN CELSIUS
VSB - VISIBILITY IN STATUTE MILES
WCI - WIND CHILL INDEX
HX  - HEAT INDEX




USA.gov is the U.S. government's official web portal to all federal, state and local government web resources and services.